DW7002 Weather Reports


Display with metric or nautical units.
time (UTC)temp
F
wind
direction
speed
MPH
gust
MPH
rain 1hr
in
rain 24hr
in
rain mn
in
humidity
%
barometer
mb
20260901163126 89 261 0.0 5.0 0.00 0.00 0.00 67 1020.9
20260901162120 89 242 0.0 0.0 0.00 0.00 0.00 66 1020.9
20260901161118 89 263 0.0 0.0 0.00 0.00 0.00 66 1021.1
20260901160129 90 214 0.0 0.0 0.00 0.00 0.00 68 1021.2
20260901155120 89 214 0.0 0.0 0.00 0.00 0.00 69 1021.4
20260901154119 89 212 0.0 0.0 0.00 0.00 0.00 72 1021.5
20260901153153 88 212 0.0 0.0 0.00 0.00 0.00 72 1021.6
20260901152125 87 165 0.0 0.0 0.00 0.00 0.00 72 1021.6
20260901151118 87 165 0.0 0.0 0.00 0.00 0.00 73 1021.8
20260901150115 87 165 0.0 0.0 0.00 0.00 0.00 75 1021.8
20260901145125 86 165 0.0 0.0 0.00 0.00 0.00 73 1021.8
20260901144117 85 157 0.0 0.0 0.00 0.00 0.00 77 1021.8
20260901143131 84 157 0.0 0.0 0.00 0.00 0.00 78 1021.8
20260901142128 83 157 0.0 0.0 0.00 0.00 0.00 83 1021.7
20260901141121 82 157 0.0 0.0 0.00 0.00 0.00 84 1021.8
20260901140133 81 157 0.0 0.0 0.00 0.00 0.00 86 1021.7
20260901135128 80 157 0.0 0.0 0.00 0.00 0.00 88 1021.6
20260901133133 77 157 0.0 0.0 0.00 0.00 0.00 93 1021.8
20260901132126 76 157 0.0 0.0 0.00 0.00 0.00 94 1021.6
20260901131122 75 153 0.0 0.0 0.00 0.00 0.00 96 1021.6
20260901130115 74 153 0.0 0.0 0.00 0.00 0.00 97 1021.6
20260901125126 74 153 0.0 0.0 0.00 0.00 0.00 97 1021.6
20260901124124 73 153 0.0 0.0 0.00 0.00 0.00 97 1021.5
20260901123117 73 153 0.0 0.0 0.00 0.00 0.00 97 1021.5
20260901122131 72 153 0.0 0.0 0.00 0.00 0.00 97 1021.4
20260901121125 72 153 0.0 0.0 0.00 0.00 0.00 96 1021.3
20260901120122 71 153 0.0 0.0 0.00 0.00 0.00 95 1021.4
20260901115132 71 153 0.0 0.0 0.00 0.00 0.00 95 1021.4
20260901114124 71 153 0.0 0.0 0.00 0.00 0.00 95 1021.2
20260901113121 71 153 0.0 0.0 0.00 0.00 0.00 95 1021.1
20260901112114 71 153 0.0 0.0 0.00 0.00 0.00 95 1020.9
20260901111127 71 153 0.0 0.0 0.00 0.00 0.00 95 1021.0
20260901110120 71 153 0.0 0.0 0.00 0.00 0.00 95 1020.8
20260901105115 71 153 0.0 0.0 0.00 0.00 0.00 95 1020.6
20260901104128 71 153 0.0 0.0 0.00 0.00 0.00 95 1020.5
20260901103120 71 153 0.0 0.0 0.00 0.00 0.00 95 1020.5
20260901102117 71 153 0.0 0.0 0.00 0.00 0.00 95 1020.4
20260901101131 72 153 0.0 0.0 0.00 0.00 0.00 95 1020.5
20260901100123 72 153 0.0 0.0 0.00 0.00 0.00 95 1020.5
20260901095115 72 153 0.0 0.0 0.00 0.00 0.00 95 1020.5
20260901094131 72 153 0.0 0.0 0.00 0.00 0.00 95 1020.5
20260901093125 72 153 0.0 0.0 0.00 0.00 0.00 95 1020.4
20260901092117 72 153 0.0 0.0 0.00 0.00 0.00 95 1020.4
20260901091150 72 153 0.0 0.0 0.00 0.00 0.00 95 1020.4
20260901090125 72 153 0.0 1.0 0.00 0.00 0.00 95 1020.4
20260901085115 72 153 0.0 0.0 0.00 0.00 0.00 95 1020.5
20260901084129 72 153 0.0 0.0 0.00 0.00 0.00 94 1020.5
20260901083126 72 153 0.0 0.0 0.00 0.00 0.00 94 1020.5
20260901082120 72 153 0.0 0.0 0.00 0.00 0.00 94 1020.6
20260901081114 72 153 0.0 0.0 0.00 0.00 0.00 94 1020.5
20260901080127 72 153 0.0 0.0 0.00 0.00 0.00 94 1020.5
20260901075122 72 153 0.0 0.0 0.00 0.00 0.00 94 1020.4
20260901074135 72 153 0.0 0.0 0.00 0.00 0.00 95 1020.6
20260901073147 72 153 0.0 1.0 0.00 0.00 0.00 95 1020.6
20260901072119 72 153 0.0 0.0 0.00 0.00 0.00 94 1020.7
20260901071135 72 153 0.0 0.0 0.00 0.00 0.00 94 1020.8
20260901070128 73 153 0.0 0.0 0.00 0.00 0.00 94 1020.7
20260901065119 73 153 0.0 0.0 0.00 0.00 0.00 94 1020.7
20260901064114 73 153 0.0 0.0 0.00 0.00 0.00 94 1020.8
20260901063131 73 153 0.0 0.0 0.00 0.00 0.00 94 1020.9
20260901062123 73 153 0.0 0.0 0.00 0.00 0.00 94 1021.0
20260901061118 73 153 0.0 0.0 0.00 0.00 0.00 94 1021.1
20260901060114 73 153 0.0 0.0 0.00 0.00 0.00 94 1021.1
20260901055126 73 153 0.0 0.0 0.00 0.00 0.00 94 1021.1
20260901054119 73 153 0.0 0.0 0.00 0.00 0.00 94 1021.2
20260901053133 73 153 0.0 0.0 0.00 0.00 0.00 93 1021.3
20260901052131 73 153 0.0 0.0 0.00 0.00 0.00 94 1021.3
20260901051143 73 153 0.0 0.0 0.00 0.00 0.00 93 1021.3
20260901050136 73 153 0.0 0.0 0.00 0.00 0.00 93 1021.4
20260901045126 73 153 0.0 0.0 0.00 0.00 0.00 93 1021.3
20260901044123 74 153 0.0 0.0 0.00 0.00 0.00 93 1021.4
20260901043118 73 153 0.0 0.0 0.00 0.00 0.00 93 1021.3
20260901042132 74 153 0.0 0.0 0.00 0.00 0.00 94 1021.2
20260901041145 74 153 0.0 1.0 0.00 0.00 0.00 94 1021.2
20260901040122 74 271 0.0 0.0 0.00 0.00 0.00 93 1021.2
20260901035134 74 271 0.0 0.0 0.00 0.00 0.00 93 1021.2
20260901034126 74 271 0.0 0.0 0.00 0.00 0.00 92 1021.2
20260901033118 74 271 0.0 0.0 0.00 0.00 0.00 92 1021.0
20260901032117 74 271 0.0 0.0 0.00 0.00 0.00 92 1021.1
20260901031130 74 271 0.0 0.0 0.00 0.00 0.00 91 1021.1
20260901030122 74 271 0.0 0.0 0.00 0.00 0.00 92 1021.1
20260901025117 75 271 0.0 0.0 0.00 0.00 0.00 91 1021.2
20260901024130 75 271 0.0 0.0 0.00 0.00 0.00 91 1021.1
20260901023123 75 271 0.0 0.0 0.00 0.00 0.00 91 1021.0
20260901022115 75 271 0.0 0.0 0.00 0.00 0.00 91 1021.0
20260901021132 76 271 0.0 0.0 0.00 0.00 0.00 91 1021.0
20260901020145 76 271 0.0 0.0 0.00 0.00 0.00 90 1021.0
20260901015114 76 271 0.0 0.0 0.00 0.00 0.00 89 1020.9
20260901014149 76 271 0.0 0.0 0.00 0.00 0.00 89 1020.8
20260901013126 77 271 0.0 0.0 0.00 0.00 0.00 88 1020.7
20260901012138 77 271 0.0 0.0 0.00 0.00 0.00 88 1020.5
20260901011149 77 271 0.0 0.0 0.00 0.00 0.00 87 1020.4
20260901010122 78 271 0.0 0.0 0.00 0.00 0.00 87 1020.3
20260901005116 78 271 0.0 0.0 0.00 0.00 0.00 86 1020.2
20260901004149 79 271 0.0 0.0 0.00 0.00 0.00 85 1020.2
20260901003121 79 271 0.0 0.0 0.00 0.00 0.00 84 1020.2
20260901002116 80 271 0.0 0.0 0.00 0.00 0.00 83 1020.1
20260901001132 80 271 0.0 0.0 0.00 0.00 0.00 82 1020.1
20260901000124 81 271 0.0 0.0 0.00 0.00 0.00 81 1020.1
20260831235116 81 271 0.0 0.0 0.00 0.00 0.00 81 1020.0
20260831234132 82 271 0.0 0.0 0.00 0.00 0.00 79 1020.0
20260831233126 83 271 0.0 0.0 0.00 0.00 0.00 78 1020.1
20260831232120 84 271 0.0 0.0 0.00 0.00 0.00 77 1019.9
20260831231134 84 271 0.0 0.0 0.00 0.00 0.00 77 1020.0
20260831230131 84 271 0.0 0.0 0.00 0.00 0.00 78 1020.1
20260831225121 83 271 0.0 0.0 0.00 0.00 0.00 79 1020.1
20260831224114 83 271 0.0 0.0 0.00 0.00 0.00 79 1020.1
20260831223147 83 271 0.0 0.0 0.00 0.00 0.00 79 1020.1
20260831222124 83 271 0.0 0.0 0.00 0.00 0.00 79 1020.4
20260831221119 82 271 0.0 0.0 0.00 0.00 0.00 77 1020.4
20260831220131 82 271 0.0 0.0 0.00 0.00 0.00 77 1020.4
20260831215125 82 270 0.0 1.0 0.00 0.00 0.00 76 1020.4
20260831214119 82 269 1.0 3.0 0.00 0.00 0.00 74 1020.4
20260831213153 82 273 0.0 4.0 0.00 0.00 0.00 75 1020.5
20260831212123 81 275 1.0 3.0 0.00 0.00 0.00 77 1020.5
20260831211121 82 270 0.0 0.0 0.00 0.00 0.00 78 1020.5
20260831210114 82 270 0.0 5.0 0.00 0.00 0.00 78 1020.5
20260831205126 84 259 0.0 2.0 0.00 0.00 0.00 77 1020.8
20260831204123 86 342 1.0 4.0 0.00 0.00 0.00 77 1021.0
20260831203114 87 45 0.0 0.0 0.00 0.00 0.00 73 1020.8
20260831202127 88 45 0.0 0.0 0.00 0.00 0.00 72 1021.0
20260831201141 88 45 0.0 2.0 0.00 0.00 0.00 72 1020.8
20260831200118 87 144 0.0 2.0 0.00 0.00 0.00 72 1020.6
20260831195128 86 109 0.0 0.0 0.00 0.00 0.00 75 1020.7
20260831194121 86 109 0.0 0.0 0.00 0.00 0.00 74 1020.8
20260831193133 87 109 0.0 0.0 0.00 0.00 0.00 73 1020.8
20260831192131 88 109 0.0 0.0 0.00 0.00 0.00 71 1020.9
20260831191124 89 109 0.0 0.0 0.00 0.00 0.00 69 1021.0
20260831190118 89 109 0.0 1.0 0.00 0.00 0.00 67 1021.2
20260831185134 90 109 0.0 0.0 0.00 0.00 0.00 64 1021.2
20260831184127 90 109 0.0 1.0 0.00 0.00 0.00 65 1021.3
20260831183120 90 109 0.0 2.0 0.00 0.00 0.00 66 1021.4